| time (UTC) | temp C | wind direction | speed KPH | gust KPH | rain 1hr cm | rain 24hr cm | rain mn cm | humidity % | barometer mb |
| 20260506150313 | 20 | 337 | 4.8 | 9.7 | 0.00 | 0.00 | 0.00 | 42 | 1100.0 |
| 20260506145312 | 20 | 22 | 4.8 | 4.8 | 0.00 | 0.00 | 0.00 | 40 | 1100.0 |
| 20260506144312 | 20 | 22 | 4.8 | 4.8 | 0.00 | 0.00 | 0.00 | 40 | 1100.0 |
| 20260506143311 | 21 | 337 | 6.4 | 8.0 | 0.00 | 0.00 | 0.00 | 38 | 1100.0 |
| 20260506142313 | 21 | 337 | 6.4 | 8.0 | 0.00 | 0.00 | 0.00 | 38 | 1100.0 |
| 20260506141313 | 24 | 315 | 6.4 | 8.0 | 0.00 | 0.00 | 0.00 | 36 | 1100.0 |
| 20260506140312 | 24 | 315 | 6.4 | 8.0 | 0.00 | 0.00 | 0.00 | 36 | 1100.0 |
| 20260506135311 | 24 | 22 | 9.7 | 12.9 | 0.00 | 0.00 | 0.00 | 35 | 1100.0 |
| 20260506134311 | 24 | 22 | 9.7 | 12.9 | 0.00 | 0.00 | 0.00 | 35 | 1100.0 |
| 20260506133311 | 24 | 337 | 6.4 | 9.7 | 0.00 | 0.00 | 0.00 | 36 | 1100.0 |
| 20260506132310 | 24 | 337 | 6.4 | 9.7 | 0.00 | 0.00 | 0.00 | 36 | 1100.0 |
| 20260506131310 | 22 | 45 | 9.7 | 22.5 | 0.00 | 0.00 | 0.00 | 38 | 1100.0 |
| 20260506130311 | 22 | 45 | 9.7 | 22.5 | 0.00 | 0.00 | 0.00 | 38 | 1100.0 |
| 20260506125310 | 22 | 45 | 6.4 | 9.7 | 0.00 | 0.00 | 0.00 | 40 | 1100.0 |
| 20260506124310 | 22 | 45 | 6.4 | 9.7 | 0.00 | 0.00 | 0.00 | 40 | 1100.0 |
| 20260506123310 | 21 | 22 | 4.8 | 12.9 | 0.00 | 0.00 | 0.00 | 41 | 1100.0 |
| 20260506122310 | 21 | 22 | 4.8 | 12.9 | 0.00 | 0.00 | 0.00 | 41 | 1100.0 |
| 20260506121310 | 22 | 292 | 4.8 | 4.8 | 0.00 | 0.00 | 0.00 | 46 | 1100.0 |
| 20260506120309 | 22 | 292 | 4.8 | 4.8 | 0.00 | 0.00 | 0.00 | 46 | 1100.0 |
| 20260506115314 | 20 | 360 | 3.2 | 3.2 | 0.00 | 0.00 | 0.00 | 45 | 1100.0 |
| 20260506114314 | 20 | 360 | 3.2 | 3.2 | 0.00 | 0.00 | 0.00 | 45 | 1100.0 |
| 20260506113315 | 20 | 360 | 6.4 | 4.8 | 0.00 | 0.00 | 0.00 | 45 | 1100.0 |
| 20260506112314 | 20 | 360 | 6.4 | 4.8 | 0.00 | 0.00 | 0.00 | 45 | 1100.0 |
| 20260506111313 | 19 | 360 | 3.2 | 6.4 | 0.00 | 0.00 | 0.00 | 47 | 1100.0 |
| 20260506110314 | 19 | 360 | 3.2 | 6.4 | 0.00 | 0.00 | 0.00 | 47 | 1100.0 |
| 20260506105314 | 21 | 202 | 6.4 | 4.8 | 0.00 | 0.00 | 0.00 | 49 | 1100.0 |
| 20260506104313 | 21 | 202 | 6.4 | 4.8 | 0.00 | 0.00 | 0.00 | 49 | 1100.0 |
| 20260506103313 | 19 | 337 | 4.8 | 6.4 | 0.00 | 0.00 | 0.00 | 51 | 1100.0 |
| 20260506102313 | 19 | 337 | 4.8 | 6.4 | 0.00 | 0.00 | 0.00 | 51 | 1100.0 |
| 20260506101313 | 19 | 45 | 4.8 | 3.2 | 0.00 | 0.00 | 0.00 | 50 | 1100.0 |
| 20260506100312 | 19 | 45 | 4.8 | 3.2 | 0.00 | 0.00 | 0.00 | 50 | 1100.0 |
| 20260506095312 | 20 | 292 | 3.2 | 6.4 | 0.00 | 0.00 | 0.00 | 47 | 1100.0 |
| 20260506094313 | 20 | 292 | 3.2 | 6.4 | 0.00 | 0.00 | 0.00 | 47 | 1100.0 |
| 20260506093312 | 19 | 135 | 1.6 | 0.0 | 0.00 | 0.00 | 0.00 | 50 | 1100.0 |
| 20260506092313 | 19 | 135 | 1.6 | 0.0 | 0.00 | 0.00 | 0.00 | 50 | 1100.0 |
| 20260506091313 | 18 | 360 | 1.6 | 4.8 | 0.00 | 0.00 | 0.00 | 52 | 1100.0 |
| 20260506090313 | 18 | 360 | 1.6 | 4.8 | 0.00 | 0.00 | 0.00 | 52 | 1100.0 |
| 20260506085312 | 18 | 292 | 4.8 | 6.4 | 0.00 | 0.00 | 0.00 | 57 | 1100.0 |
| 20260506084311 | 18 | 292 | 4.8 | 6.4 | 0.00 | 0.00 | 0.00 | 57 | 1100.0 |
| 20260506083312 | 16 | 360 | 4.8 | 4.8 | 0.00 | 0.00 | 0.00 | 63 | 1100.0 |
| 20260506082312 | 16 | 360 | 4.8 | 4.8 | 0.00 | 0.00 | 0.00 | 63 | 1100.0 |
| 20260506081311 | 15 | 292 | 4.8 | 4.8 | 0.00 | 0.00 | 0.00 | 68 | 1100.0 |
| 20260506080311 | 15 | 292 | 4.8 | 4.8 | 0.00 | 0.00 | 0.00 | 68 | 1100.0 |
| 20260506073310 | 14 | 270 | 3.2 | 8.0 | 0.00 | 0.00 | 0.00 | 69 | 1100.0 |
| 20260506072310 | 14 | 270 | 3.2 | 8.0 | 0.00 | 0.00 | 0.00 | 69 | 1100.0 |
| 20260506071310 | 13 | 337 | 6.4 | 6.4 | 0.00 | 0.00 | 0.00 | 70 | 1100.0 |
| 20260506070310 | 13 | 337 | 6.4 | 6.4 | 0.00 | 0.00 | 0.00 | 70 | 1100.0 |
| 20260506062311 | 11 | 360 | 6.4 | 6.4 | 0.00 | 0.00 | 0.00 | 79 | 1100.0 |
| 20260506061309 | 11 | 337 | 4.8 | 8.0 | 0.00 | 0.00 | 0.00 | 82 | 1100.0 |
| 20260506060314 | 11 | 337 | 4.8 | 8.0 | 0.00 | 0.00 | 0.00 | 82 | 1100.0 |
| 20260506051313 | 9 | 45 | 8.0 | 4.8 | 0.00 | 0.00 | 0.00 | 88 | 1100.0 |
| 20260506050314 | 9 | 45 | 8.0 | 4.8 | 0.00 | 0.00 | 0.00 | 88 | 1100.0 |
| 20260506044313 | 8 | 337 | 8.0 | 20.9 | 0.00 | 0.00 | 0.00 | 88 | 1100.0 |
| 20260506043314 | 8 | 292 | 8.0 | 16.1 | 0.00 | 0.00 | 0.00 | 88 | 1100.0 |
| 20260506042314 | 8 | 292 | 8.0 | 16.1 | 0.00 | 0.00 | 0.00 | 88 | 1100.0 |
| 20260506041314 | 8 | 360 | 4.8 | 9.7 | 0.00 | 0.00 | 0.00 | 87 | 1100.0 |
| 20260506040312 | 8 | 360 | 4.8 | 9.7 | 0.00 | 0.00 | 0.00 | 87 | 1100.0 |
| 20260506035312 | 8 | 90 | 3.2 | 1.6 | 0.00 | 0.00 | 0.00 | 87 | 1100.0 |
| 20260506034314 | 8 | 90 | 3.2 | 1.6 | 0.00 | 0.00 | 0.00 | 87 | 1100.0 |
| 20260506033312 | 8 | 337 | 3.2 | 6.4 | 0.00 | 0.00 | 0.00 | 87 | 1100.0 |
| 20260506032312 | 8 | 337 | 3.2 | 6.4 | 0.00 | 0.00 | 0.00 | 87 | 1100.0 |
| 20260506031312 | 8 | 67 | 0.0 | 1.6 | 0.00 | 0.00 | 0.00 | 84 | 1100.0 |
| 20260506030311 | 8 | 67 | 0.0 | 1.6 | 0.00 | 0.00 | 0.00 | 84 | 1100.0 |
| 20260506025313 | 8 | 45 | 1.6 | 1.6 | 0.00 | 0.00 | 0.00 | 84 | 1100.0 |
| 20260506024311 | 8 | 45 | 1.6 | 1.6 | 0.00 | 0.00 | 0.00 | 84 | 1100.0 |
| 20260506023311 | 9 | 315 | 0.0 | 0.0 | 0.00 | 0.00 | 0.00 | 82 | 1100.0 |
| 20260506022313 | 9 | 315 | 0.0 | 0.0 | 0.00 | 0.00 | 0.00 | 82 | 1100.0 |
| 20260506021311 | 10 | 315 | 1.6 | 1.6 | 0.00 | 0.00 | 0.00 | 82 | 1100.0 |
| 20260506020311 | 10 | 315 | 1.6 | 1.6 | 0.00 | 0.00 | 0.00 | 82 | 1100.0 |
| 20260506015310 | 10 | 90 | 4.8 | 8.0 | 0.00 | 0.00 | 0.00 | 81 | 1100.0 |
| 20260506014310 | 10 | 90 | 4.8 | 8.0 | 0.00 | 0.00 | 0.00 | 81 | 1100.0 |
| 20260506013310 | 10 | 67 | 4.8 | 6.4 | 0.00 | 0.00 | 0.00 | 83 | 1100.0 |
| 20260506012311 | 10 | 67 | 4.8 | 6.4 | 0.00 | 0.00 | 0.00 | 83 | 1100.0 |
| 20260506011311 | 10 | 90 | 3.2 | 4.8 | 0.00 | 0.00 | 0.00 | 85 | 1100.0 |
| 20260506010310 | 10 | 90 | 3.2 | 4.8 | 0.00 | 0.00 | 0.00 | 85 | 1100.0 |
| 20260506005310 | 10 | 90 | 3.2 | 8.0 | 0.00 | 0.00 | 0.00 | 84 | 1100.0 |
| 20260506004309 | 10 | 90 | 3.2 | 8.0 | 0.00 | 0.00 | 0.00 | 84 | 1100.0 |
| 20260506003310 | 10 | 135 | 4.8 | 12.9 | 0.00 | 0.00 | 0.00 | 83 | 1100.0 |
| 20260506002314 | 10 | 135 | 4.8 | 12.9 | 0.00 | 0.00 | 0.00 | 83 | 1100.0 |
| 20260506001315 | 11 | 112 | 6.4 | 12.9 | 0.00 | 0.00 | 0.00 | 82 | 1100.0 |
| 20260506000314 | 11 | 112 | 6.4 | 12.9 | 0.00 | 0.00 | 0.00 | 82 | 1100.0 |
| 20260505235314 | 10 | 135 | 3.2 | 6.4 | 0.00 | 0.00 | 0.00 | 82 | 1100.0 |
| 20260505234314 | 10 | 135 | 3.2 | 6.4 | 0.00 | 0.00 | 0.00 | 82 | 1100.0 |
| 20260505233313 | 10 | 67 | 1.6 | 3.2 | 0.00 | 0.00 | 0.00 | 82 | 1100.0 |
| 20260505232314 | 10 | 67 | 1.6 | 3.2 | 0.00 | 0.00 | 0.00 | 82 | 1100.0 |
| 20260505231313 | 10 | 22 | 3.2 | 1.6 | 0.00 | 0.00 | 0.00 | 82 | 1100.0 |
| 20260505230313 | 10 | 22 | 3.2 | 1.6 | 0.00 | 0.00 | 0.00 | 82 | 1100.0 |
| 20260505225314 | 10 | 360 | 3.2 | 6.4 | 0.00 | 0.00 | 0.00 | 83 | 1100.0 |
| 20260505224312 | 10 | 360 | 3.2 | 6.4 | 0.00 | 0.00 | 0.00 | 83 | 1100.0 |
| 20260505223312 | 10 | 337 | 1.6 | 1.6 | 0.00 | 0.00 | 0.00 | 82 | 1100.0 |
| 20260505222313 | 10 | 337 | 1.6 | 1.6 | 0.00 | 0.00 | 0.00 | 82 | 1100.0 |
| 20260505221312 | 11 | 45 | 4.8 | 6.4 | 0.00 | 0.00 | 0.00 | 82 | 1100.0 |
| 20260505220313 | 11 | 45 | 4.8 | 6.4 | 0.00 | 0.00 | 0.00 | 82 | 1100.0 |
| 20260505215313 | 11 | 45 | 4.8 | 3.2 | 0.00 | 0.00 | 0.00 | 83 | 1100.0 |
| 20260505214312 | 11 | 45 | 4.8 | 3.2 | 0.00 | 0.00 | 0.00 | 83 | 1100.0 |
| 20260505213312 | 12 | 337 | 4.8 | 6.4 | 0.00 | 0.00 | 0.00 | 79 | 1100.0 |
| 20260505212311 | 12 | 337 | 4.8 | 6.4 | 0.00 | 0.00 | 0.00 | 79 | 1100.0 |
| 20260505211311 | 12 | 67 | 6.4 | 4.8 | 0.00 | 0.00 | 0.00 | 74 | 1100.0 |
| 20260505210313 | 12 | 67 | 6.4 | 4.8 | 0.00 | 0.00 | 0.00 | 74 | 1100.0 |
| 20260505205311 | 13 | 90 | 8.0 | 14.5 | 0.00 | 0.00 | 0.00 | 73 | 1100.0 |
| 20260505204311 | 13 | 90 | 8.0 | 14.5 | 0.00 | 0.00 | 0.00 | 73 | 1100.0 |
| 20260505203311 | 13 | 292 | 9.7 | 8.0 | 0.00 | 0.00 | 0.00 | 69 | 1100.0 |
| 20260505202312 | 13 | 292 | 9.7 | 8.0 | 0.00 | 0.00 | 0.00 | 69 | 1100.0 |
| 20260505201310 | 15 | 90 | 6.4 | 8.0 | 0.00 | 0.00 | 0.00 | 64 | 1100.0 |
| 20260505200310 | 15 | 90 | 6.4 | 8.0 | 0.00 | 0.00 | 0.00 | 64 | 1100.0 |
| 20260505195310 | 15 | 45 | 8.0 | 25.7 | 0.00 | 0.00 | 0.00 | 61 | 1100.0 |
| 20260505194311 | 15 | 45 | 8.0 | 25.7 | 0.00 | 0.00 | 0.00 | 61 | 1100.0 |
| 20260505193310 | 15 | 360 | 6.4 | 12.9 | 0.00 | 0.00 | 0.00 | 57 | 1100.0 |
| 20260505192311 | 15 | 360 | 6.4 | 12.9 | 0.00 | 0.00 | 0.00 | 57 | 1100.0 |
| 20260505191310 | 15 | 360 | 3.2 | 3.2 | 0.00 | 0.00 | 0.00 | 54 | 1100.0 |
| 20260505190311 | 15 | 360 | 3.2 | 3.2 | 0.00 | 0.00 | 0.00 | 54 | 1100.0 |
| 20260505185309 | 16 | 67 | 3.2 | 3.2 | 0.00 | 0.00 | 0.00 | 51 | 1100.0 |
| 20260505184311 | 16 | 67 | 3.2 | 3.2 | 0.00 | 0.00 | 0.00 | 51 | 1100.0 |
| 20260505183315 | 17 | 22 | 1.6 | 3.2 | 0.00 | 0.00 | 0.00 | 46 | 1100.0 |
| 20260505182315 | 17 | 22 | 1.6 | 3.2 | 0.00 | 0.00 | 0.00 | 46 | 1100.0 |
| 20260505181314 | 18 | 360 | 3.2 | 1.6 | 0.00 | 0.00 | 0.00 | 43 | 1100.0 |
| 20260505180315 | 18 | 360 | 3.2 | 1.6 | 0.00 | 0.00 | 0.00 | 43 | 1100.0 |
| 20260505175314 | 20 | 360 | 3.2 | 3.2 | 0.00 | 0.00 | 0.00 | 42 | 1100.0 |
| 20260505174313 | 20 | 360 | 3.2 | 3.2 | 0.00 | 0.00 | 0.00 | 42 | 1100.0 |
| 20260505173314 | 20 | 337 | 4.8 | 8.0 | 0.00 | 0.00 | 0.00 | 39 | 1100.0 |
| 20260505172313 | 20 | 337 | 4.8 | 8.0 | 0.00 | 0.00 | 0.00 | 39 | 1100.0 |
| 20260505171314 | 21 | 45 | 4.8 | 1.6 | 0.00 | 0.00 | 0.00 | 37 | 1100.0 |
| 20260505170313 | 21 | 45 | 4.8 | 1.6 | 0.00 | 0.00 | 0.00 | 37 | 1100.0 |
| 20260505165312 | 22 | 337 | 6.4 | 8.0 | 0.00 | 0.00 | 0.00 | 35 | 1100.0 |
| 20260505164312 | 22 | 337 | 6.4 | 8.0 | 0.00 | 0.00 | 0.00 | 35 | 1100.0 |
| 20260505163314 | 23 | 45 | 4.8 | 8.0 | 0.00 | 0.00 | 0.00 | 34 | 1100.0 |
| 20260505162314 | 23 | 45 | 4.8 | 8.0 | 0.00 | 0.00 | 0.00 | 34 | 1100.0 |
| 20260505161312 | 24 | 337 | 6.4 | 11.3 | 0.00 | 0.00 | 0.00 | 31 | 1100.0 |
| 20260505160312 | 24 | 337 | 6.4 | 11.3 | 0.00 | 0.00 | 0.00 | 31 | 1100.0 |
| 20260505153311 | 25 | 337 | 4.8 | 6.4 | 0.00 | 0.00 | 0.00 | 31 | 1100.0 |
| 20260505152311 | 25 | 337 | 4.8 | 6.4 | 0.00 | 0.00 | 0.00 | 31 | 1100.0 |
| 20260505151311 | 27 | 360 | 4.8 | 3.2 | 0.00 | 0.00 | 0.00 | 28 | 1100.0 |